Regional Weather Roundup
Issued by NWS

Home | Current Version | Previous Version | Text Only | Print | Product List | Glossary On
Versions: 1 2 3 4 5 6 7 8 9 10 11 12 13 14 15 16 17 18 19 20 21 22 23 24 25 26 27
000
ASUS44 KBMX 201810
RWRAL

ALABAMA REGIONAL WEATHER ROUNDUP
NATIONAL WEATHER SERVICE BIRMINGHAM AL
1200 PM CST FRI JAN 20 2017

NOTE: "FAIR" INDICATES FEW OR NO CLOUDS BELOW 12,000 FEET
WITH NO SIGNIFICANT WEATHER AND/OR OBSTRUCTIONS TO VISIBILITY.

THE REMARK "TC" DENOTES TEMPERATURE IN DEGREES CELSIUS.

ALZ001>011-014-016>018-020-201900-
NORTH ALABAMA

CITY           SKY/WX    TMP DP  RH WIND       PRES   REMARKS
MUSCLE SHOALS  PTSUNNY   66  57  72 SW12      29.80F
6HR MIN TEMP:  53; 6HR MAX TEMP:  66;

HUNTSVILLE     PTSUNNY   67  57  70 SW10      29.81F
6HR MIN TEMP:  58; 6HR MAX TEMP:  67;

DECATUR        PTSUNNY   65  58  78 S9        29.81F
6HR MIN TEMP:  56; 6HR MAX TEMP:  66;

HALEYVILLE     CLOUDY    64  57  78 S10       29.82F
6HR MIN TEMP:  55; 6HR MAX TEMP:  65; 6HR PCP:  0.01;

GADSDEN        MOSUNNY   70  58  65 SW9       29.83F
6HR MIN TEMP:  56; 6HR MAX TEMP:  70;

$$

ALZ012-013-022-023-030>036-040>044-201900-
WEST CENTRAL ALABAMA

CITY           SKY/WX    TMP DP  RH WIND       PRES   REMARKS
TUSCALOOSA     MOSUNNY   69  61  75 SW10      29.82F
6HR MIN TEMP:  61; 6HR MAX TEMP:  69;

$$

ALZ015-024>027-033>036-040>044-201900-
CENTRAL ALABAMA

CITY           SKY/WX    TMP DP  RH WIND       PRES   REMARKS
BIRMINGHAM     PTSUNNY   69  60  73 SW10      29.86F
6HR MIN TEMP:  60; 6HR MAX TEMP:  69;

MONTGOMERY     CLOUDY    73  60  63 S7        29.86F
6HR MIN TEMP:  65; 6HR MAX TEMP:  73;

SHELBY CO ARPT PTSUNNY   71  62  73 S9        29.83F
6HR MIN TEMP:  61; 6HR MAX TEMP:  68;

MAXWELL AFB    CLOUDY    71  62  73 SW6       29.85F
6HR MIN TEMP:  63; 6HR MAX TEMP:  71;

GREENVILLE     CLOUDY    72  60  66 VRB6      29.85F
6HR MIN TEMP:  63; 6HR MAX TEMP:  72;

$$

ALZ019-021-028-029-037-038-045>048-201900-
EAST CENTRAL ALABAMA

CITY           SKY/WX    TMP DP  RH WIND       PRES   REMARKS
ANNISTON       CLOUDY    68  58  70 SW9       29.85F
6HR MIN TEMP:  62; 6HR MAX TEMP:  69; 6HR PCP:  0.02;

ALEXANDER CITY MOSUNNY   71  63  75 SW8       29.86F
6HR MIN TEMP:  65; 6HR MAX TEMP:  73;

AUBURN         CLOUDY    66  61  84 S7        29.89F
6HR MIN TEMP:  63; 6HR MAX TEMP:  67;

$$

ALZ051>064-201900-
SOUTHWEST ALABAMA

CITY           SKY/WX    TMP DP  RH WIND       PRES   REMARKS
MOBILE         PTSUNNY   74  66  76 SW9       29.86F
6HR MIN TEMP:  61; 6HR MAX TEMP:  74;

BROOKLEY FIELD CLOUDY    71  68  90 SE8       29.87F
6HR MIN TEMP:  65; 6HR MAX TEMP:  74;

EVERGREEN      CLOUDY    72  64  76 SW6       29.86F
6HR MIN TEMP:  63; 6HR MAX TEMP:  73;

$$

ALZ049-050-065>069-201900-
SOUTHEAST ALABAMA

CITY           SKY/WX    TMP DP  RH WIND       PRES   REMARKS
DOTHAN         MOSUNNY   74  65  73 S12       29.91F
6HR MIN TEMP:  63; 6HR MAX TEMP:  74;

OZARK          PTSUNNY   75  66  73 SW9       29.93F
TROY           PTSUNNY   73  62  68 SW8       29.87F
6HR MIN TEMP:  63; 6HR MAX TEMP:  73;

EUFAULA        CLOUDY    75  62  64 S12       29.86F
6HR MIN TEMP:  66; 6HR MAX TEMP:  76;

$$




USA.gov is the U.S. government's official web portal to all federal, state and local government web resources and services.